STARLINK-3781, 52272

Orbit data source: Space-Track

STARLINK-3781, 52272 is a payload satellite owned by SpaceX/Seattle (US) in LEO that was launched on Thu, 21 Apr 2022 UTC via an FALCON 9 launch vehicle from the Air Force Eastern Test Range (AFETR). Payload-class satellites include a variety of spacecraft equipped with specific instruments for various scientific and technological missions. These include communications satellites like Starlink; space stations such as the ISS; scientific satellites like the Hubble; Earth observation satellites from companies like Planet Labs, Umbra, and HawkEye 360; GPS; miniature CubeSats for education and research; and military/defense satellites.

Loading next visibility...
Identifier
52272, 2022-041M
Orbit
LEO
Country
Flag of USUS
Related business
Manufacturer
SpaceX/Seattle
Mission
Operational Commercial Communications
Bus & Motor
STARLINK, Unknown motor
Mass
297 kg wet, ~275 kg dry
Launch date (UTC)
2022-04-21 (4 years ago)
Launch vehicle
FALCON 9
Launch site
Air Force Eastern Test Range (AFETR)
Object type
Payload
Rocket body
Debris
Shape & HBR
Box + 1 Pan, 10.1 m
Radar Cross Section
11.087 m², Large (>1 m²)

Expand to show TLE details & history
Last TLE update: 1 day ago

TLE from 1 day ago
0 STARLINK-3781
1 52272U 22041M   26235.92007999 -.00003187  00000-0 -91042-4 0  9991
2 52272  53.1606  69.3257 0001475  80.5961 279.5207 15.31674336239734
Epoch: 2026-08-23T22:04Z
TLE epoch observation values (Epoch: 2026-08-23T22:04:54.911Z)
Latitude
-0.00001°
Longitude
125.88768°
Altitude
471.55 km
Speed
7.632 km/s
True Right ascension
04h 37m 18s
True Declination
0° 00' 00"
Sunlit
Object was in daylight at epoch
Visualization orbit readout
Latitude
Unknown
Longitude
Unknown
Altitude
Unknown
Speed
Unknown
Apparent Right ascension
Unknown
Apparent Declination
Unknown
Sunlit
N/A
Visualization observer readout
Local Sidereal Time
18:13:06
Azimuth
Unknown
Elevation
Unknown
Doppler factor
Unknown
Orbital elements
Apogee altitude
472.083 km
Perigee altitude
470.063 km
Semi-major axis
6,849.21 km
Eccentricity
0.00015
Inclination
53.1606°
RAAN
69.3257°
Arg. of periapsis
80.5961°
True anomaly
279.50403°
Mean anomaly
279.5207°
Eccentric anomaly
279.51237°
Mean motion
3.82897 °/min
Orbital period
94.02 mins
BSTAR
-0.000091042
Loading maneuver chart data...
Computing Atmospheric mass density...
Loading historical data...
Loading historical data...
Loading historical data...
Loading historical data...
Loading historical data...
Loading historical data...
Loading historical data...

Documentation

Showing up to 5 results
|